Location: Chenereilles
(45.4866°N, 4.0790°E)
Time: 07:32:24
(UTC+00:00)

Cosmos 1633 Rocket - Pass Details

Date: 12 November 2019
Orbit: 608 x 622 km, 82.5° (Epoch: 12 December)

Event Time Altitude Azimuth Distance (km) Brightness Sun altitude
Rises 18:36:01 0° 348° (NNW) 2,898 6.6 -24.4°
Reaches altitude 10° 18:38:15 10° 345° (NNW) 1,990 5.8 -24.8°
Maximum altitude 18:42:37 64° 265° (W) 687 3.4 -25.6°
Enters shadow 18:45:36 20° 187° (S) 1,453 5.0 -26.1°
Exits shadow 18:49:16 - 181° (S) 2,917 6.5 -26.7°
